Location: Unspecified
(38.9820°N, 94.4650°W)
Time: 08:01:24
(UTC-05:00)

Hubble Space Telescope - Visible Passes

Search period start: 06 May 2016 00:00
Search period end: 16 May 2016 00:00
Orbit: 539 x 543 km, 28.5° (Epoch: 05 May)

Date Brightness Start Highest point End Pass type
(mag) Time Alt. Az. Time Alt. Az. Time Alt. Az.
06 May 2.5 05:07:37 15° SSW 05:08:41 16° S 05:11:18 10° SSE visible
07 May 2.6 04:58:43 15° SSW 04:58:57 15° SSW 05:01:19 10° SSE visible
08 May 2.8 04:49:57 13° S 04:49:57 13° S 04:51:11 10° SSE visible
15 May 3.1 22:26:35 10° SW 22:27:11 12° SW 22:27:11 12° SW visible
